Weather in Vysha

Russia / Republic of Mordovia     53°50′56″N   42°22′38″E
temp.,
°C
wind,
m/s
gust,
m/s
humid.,
%
clouds,
%
prec.,
mm/h
press.,
hPa
HPBL,
m
31 july, sat
sat3100:00+18wsw34978 0.4 100586
03:00+17w379933 0.4 1005196
06:00+18wsw37969 0.0 1006235
09:00+23w47720 0.0 1007694
12:00+28wnw574081 0.0 10072267
15:00+29wnw583310 0.0 10072597
18:00+26wsw484416 0.0 1008467
21:00+22wnw375436 0.0 1009147
1 august, sun
sun100:00+20wsw226511 0.0 101013
03:00+18wsw2272100 0.0 101225
06:00+19w2473100 0.0 1013110
09:00+25wnw344686 0.0 1013714
12:00+28w343288 0.0 10131596
15:00+30wnw242799 0.0 10122044
18:00+29ene113718 0.0 1012352
21:00+22se374794 0.0 101298
2 august, mon
mon200:00+21s385519 0.0 1012121
03:00+20s395695 0.0 1012152
06:00+21s386117 0.0 1013172
09:00+29s36416 0.0 1012585
12:00+33ssw482955 0.0 10102688
15:00+33ssw472971 0.0 10081948
18:00+24w71159100 0.2 1010338
21:00+22s7157190 0.5 1009415
3 august, tue
tue300:00+20s386789 0.1 1007112
03:00+19sw31176100 0.1 1009261
06:00+19sw338683 0.6 100882
09:00+23sw3569100 0.7 1007410
12:00+29sw684670 0.0 10081658
15:00+30wsw5103695 0.0 10072751
18:00+24sw4757100 0.4 1008236
21:00+17wsw379284 3.1 1010173
4 august, wed
wed400:00+17wnw2493100 0.0 101194
03:00+15wnw23954 0.0 101258
06:00+16wnw36934 0.0 1013185
09:00+21nw35640 0.0 1013729
12:00+25nw45384 0.0 10141995
15:00+26nw453290 0.0 10142600
18:00+25nw35381 0.0 10141025
21:00+19nnw235581 0.0 101654